GFSFLT1_prec_precacc_135.txt.gz
Total_Precipitation_Accumulation
0.00 0.00 0.02 0.03 0.03 0.26 0.64 0.84 1.09 1.18 1.08 0.89 0.61 0.55 0.49 0.38 0.31 0.30 0.40 0.45 0.37 0.42 0.43 0.54 0.79 0.84 0.47 0.44 0.54 0.60 0.55 0.50
0.00 0.01 0.02 0.04 0.10 0.40 0.69 0.82 1.10 1.07 0.58 0.43 0.44 0.45 0.29 0.32 0.42 0.44 0.48 0.55 0.40 0.30 0.40 0.40 0.60 0.62 0.47 0.31 0.46 0.63 0.67 0.55
0.01 0.03 0.06 0.12 0.24 0.52 0.61 0.48 0.33 0.16 0.11 0.19 0.29 0.37 0.30 0.24 0.36 0.47 0.44 0.63 0.55 0.37 0.41 0.35 0.44 0.49 0.51 0.38 0.34 0.48 0.53 0.50
0.02 0.06 0.13 0.17 0.15 0.15 0.09 0.06 0.05 0.09 0.12 0.30 0.41 0.64 0.50 0.32 0.29 0.37 0.55 0.58 0.63 0.57 0.54 0.39 0.26 0.24 0.30 0.41 0.40 0.31 0.28 0.35
0.03 0.02 0.01 0.00 0.01 0.09 0.07 0.07 0.08 0.12 0.14 0.23 0.33 0.30 0.21 0.16 0.16 0.24 0.36 0.60 0.81 0.56 0.70 0.68 0.58 0.37 0.28 0.36 0.49 0.42 0.40 0.40
0.00 0.00 0.00 0.01 0.02 0.07 0.09 0.11 0.11 0.09 0.12 0.19 0.44 0.43 0.40 0.35 0.38 0.49 0.56 0.77 1.08 1.07 0.71 0.88 0.88 0.57 0.38 0.50 0.65 0.71 0.78 0.93
0.01 0.02 0.01 0.01 0.04 0.06 0.05 0.13 0.10 0.16 0.21 0.25 0.34 0.40 0.38 0.33 0.34 0.39 0.48 0.65 1.04 1.31 1.54 1.33 1.34 1.17 0.81 0.68 0.71 0.72 0.82 0.88
0.06 0.04 0.02 0.01 0.02 0.06 0.14 0.18 0.19 0.21 0.37 0.46 0.44 0.45 0.51 0.21 0.17 0.24 0.28 0.42 0.43 0.59 0.77 0.92 0.96 1.07 1.01 0.83 0.72 0.71 0.73 0.76
0.12 0.09 0.08 0.09 0.09 0.05 0.11 0.15 0.26 0.27 0.41 0.56 0.61 0.52 0.57 0.42 0.23 0.36 0.31 0.30 0.21 0.27 0.40 0.59 0.75 1.01 1.04 0.91 0.80 0.75 0.85 0.93
0.29 0.25 0.21 0.22 0.19 0.14 0.15 0.18 0.28 0.31 0.36 0.52 0.66 0.72 0.65 0.47 0.40 0.50 0.47 0.32 0.22 0.25 0.36 0.55 0.83 1.10 1.16 1.17 1.12 1.04 1.08 1.02
0.41 0.47 0.41 0.25 0.29 0.23 0.21 0.20 0.24 0.24 0.26 0.37 0.47 0.55 0.71 0.63 0.50 0.60 0.60 0.59 0.52 0.56 0.59 0.67 0.68 0.75 0.78 0.90 0.93 0.80 0.75 0.69
0.58 0.90 0.80 0.44 0.35 0.29 0.21 0.21 0.26 0.31 0.38 0.32 0.36 0.43 0.43 0.83 1.20 1.27 1.08 1.05 1.13 1.02 0.86 0.77 0.83 0.94 1.02 0.92 0.69 0.65 0.71 0.72
0.55 0.46 0.58 0.78 0.50 0.20 0.12 0.15 0.33 0.75 1.02 1.13 0.92 1.13 1.15 1.21 1.57 1.52 1.32 1.19 0.96 0.86 0.97 0.90 0.72 0.61 0.55 0.55 0.54 0.53 0.50 0.58
1.09 0.93 0.66 0.40 0.52 0.32 0.17 0.38 1.02 1.34 1.41 1.51 1.21 1.46 1.45 1.76 1.58 1.38 1.23 1.13 1.05 0.91 0.75 0.59 0.42 0.37 0.33 0.32 0.32 0.36 0.44 0.46
1.11 1.13 1.25 1.15 0.65 0.55 0.53 0.47 0.85 1.11 0.68 0.63 0.91 0.94 0.77 0.74 0.57 0.57 0.50 0.50 0.44 0.34 0.32 0.32 0.31 0.27 0.24 0.26 0.25 0.25 0.28 0.35
0.93 1.44 1.08 0.93 1.03 0.88 0.76 0.78 0.68 0.78 0.64 0.54 0.54 0.51 0.46 0.34 0.30 0.30 0.34 0.36 0.34 0.32 0.32 0.28 0.25 0.25 0.29 0.27 0.21 0.20 0.20 0.22
0.55 0.85 1.32 0.74 0.59 0.68 0.72 0.88 1.02 0.85 0.77 0.70 0.50 0.46 0.43 0.40 0.38 0.31 0.32 0.33 0.27 0.26 0.25 0.28 0.29 0.25 0.41 0.30 0.20 0.17 0.24 0.24
0.40 0.39 0.99 0.98 0.73 0.69 0.62 0.82 0.96 0.83 0.81 0.75 0.56 0.46 0.42 0.34 0.24 0.22 0.23 0.31 0.37 0.42 0.36 0.28 0.20 0.22 0.39 0.23 0.25 0.15 0.17 0.21
0.34 0.35 0.61 0.89 0.63 0.53 0.53 0.62 0.84 0.78 0.68 0.67 0.62 0.44 0.36 0.37 0.29 0.31 0.37 0.45 0.45 0.33 0.24 0.18 0.15 0.22 0.36 0.24 0.24 0.15 0.18 0.23

GFSFLT1_prec_precacc_138.txt.gz
Total_Precipitation_Accumulation
0.00 0.00 0.02 0.03 0.03 0.26 0.64 0.84 1.09 1.18 1.10 0.95 0.68 0.58 0.51 0.40 0.31 0.30 0.40 0.46 0.37 0.45 0.44 0.56 0.81 0.87 0.48 0.44 0.55 0.60 0.55 0.50
0.00 0.01 0.02 0.04 0.10 0.40 0.69 0.82 1.10 1.07 0.60 0.50 0.52 0.49 0.35 0.39 0.42 0.44 0.48 0.55 0.40 0.31 0.42 0.42 0.61 0.64 0.48 0.31 0.48 0.66 0.67 0.56
0.01 0.03 0.06 0.12 0.24 0.52 0.61 0.48 0.33 0.16 0.11 0.21 0.36 0.47 0.42 0.31 0.39 0.47 0.44 0.63 0.55 0.37 0.41 0.36 0.44 0.50 0.53 0.39 0.34 0.49 0.55 0.52
0.02 0.06 0.13 0.17 0.15 0.15 0.09 0.06 0.05 0.09 0.12 0.31 0.53 0.86 0.75 0.53 0.39 0.38 0.55 0.58 0.63 0.57 0.54 0.39 0.26 0.24 0.31 0.43 0.41 0.31 0.28 0.36
0.03 0.02 0.01 0.00 0.01 0.09 0.07 0.07 0.08 0.12 0.14 0.24 0.41 0.41 0.30 0.19 0.20 0.25 0.36 0.60 0.81 0.56 0.70 0.68 0.58 0.38 0.28 0.38 0.50 0.43 0.41 0.41
0.00 0.00 0.00 0.01 0.02 0.07 0.09 0.11 0.11 0.09 0.12 0.19 0.48 0.55 0.51 0.46 0.51 0.61 0.58 0.77 1.08 1.07 0.72 0.88 0.89 0.58 0.38 0.50 0.65 0.71 0.79 0.98
0.01 0.02 0.01 0.01 0.04 0.06 0.05 0.13 0.10 0.16 0.21 0.25 0.36 0.48 0.53 0.53 0.49 0.50 0.54 0.65 1.04 1.31 1.54 1.34 1.34 1.17 0.81 0.68 0.71 0.72 0.83 0.92
0.06 0.04 0.02 0.01 0.02 0.06 0.14 0.18 0.19 0.21 0.37 0.46 0.47 0.53 0.67 0.43 0.31 0.31 0.31 0.42 0.43 0.59 0.77 0.92 0.96 1.07 1.02 0.83 0.73 0.71 0.73 0.77
0.12 0.10 0.08 0.09 0.09 0.05 0.12 0.15 0.27 0.28 0.41 0.56 0.70 0.64 0.75 0.63 0.45 0.43 0.33 0.30 0.22 0.27 0.40 0.59 0.75 1.02 1.06 0.94 0.82 0.76 0.85 0.93
0.30 0.25 0.23 0.23 0.21 0.17 0.20 0.23 0.33 0.38 0.41 0.53 0.84 1.02 0.94 0.86 0.80 0.91 0.75 0.51 0.29 0.26 0.37 0.57 0.84 1.12 1.24 1.21 1.14 1.04 1.08 1.02
0.42 0.52 0.49 0.34 0.35 0.30 0.28 0.29 0.32 0.34 0.40 0.42 0.66 0.97 1.15 1.03 1.05 1.04 1.01 0.79 0.68 0.64 0.63 0.76 0.90 0.86 0.82 0.91 0.93 0.80 0.75 0.69
0.61 0.96 0.94 0.66 0.60 0.50 0.43 0.40 0.40 0.41 0.48 0.40 0.48 0.88 0.91 1.45 1.86 1.73 1.57 1.34 1.29 1.10 0.92 0.84 1.03 1.34 1.26 0.98 0.71 0.66 0.72 0.73
0.60 0.56 0.78 1.14 1.05 0.64 0.44 0.37 0.55 0.92 1.12 1.23 1.05 1.36 1.64 1.79 2.15 1.93 1.54 1.49 1.24 1.05 1.17 1.02 0.80 0.66 0.61 0.59 0.56 0.54 0.51 0.59
1.12 1.01 0.79 0.62 0.92 0.96 0.62 0.65 1.25 1.59 1.51 1.62 1.36 1.73 2.00 2.33 2.11 1.81 1.66 1.43 1.15 0.99 0.90 0.80 0.61 0.45 0.36 0.33 0.33 0.36 0.45 0.46
1.12 1.15 1.30 1.26 0.82 0.93 0.92 0.83 1.31 1.51 0.84 0.75 1.03 1.18 1.10 1.16 0.83 0.89 0.97 1.11 0.74 0.38 0.33 0.35 0.34 0.28 0.25 0.26 0.25 0.25 0.28 0.35
0.93 1.44 1.08 0.94 1.06 1.02 0.92 0.97 0.93 1.19 0.90 0.73 0.71 0.64 0.63 0.53 0.45 0.40 0.54 0.56 0.61 0.50 0.37 0.30 0.25 0.25 0.29 0.27 0.21 0.20 0.20 0.22
0.55 0.85 1.32 0.74 0.59 0.69 0.73 0.92 1.08 0.93 0.92 0.81 0.68 0.59 0.48 0.45 0.43 0.37 0.41 0.43 0.33 0.29 0.26 0.29 0.29 0.25 0.41 0.30 0.20 0.17 0.24 0.24
0.40 0.39 0.99 0.99 0.74 0.69 0.62 0.82 0.96 0.84 0.84 0.79 0.59 0.47 0.43 0.35 0.25 0.24 0.26 0.33 0.39 0.43 0.37 0.28 0.20 0.22 0.39 0.23 0.25 0.15 0.17 0.21
0.34 0.35 0.61 0.89 0.63 0.54 0.54 0.63 0.84 0.78 0.68 0.67 0.63 0.45 0.36 0.37 0.30 0.31 0.37 0.45 0.45 0.33 0.25 0.18 0.15 0.22 0.36 0.24 0.24 0.15 0.18 0.23

GFSFLT1_prec_precacc_141.txt.gz
Total_Precipitation_Accumulation
0.00 0.00 0.02 0.03 0.03 0.26 0.64 0.84 1.09 1.18 1.10 0.96 0.77 0.73 0.66 0.64 0.46 0.42 0.50 0.47 0.37 0.45 0.44 0.56 0.81 0.87 0.48 0.44 0.55 0.61 0.56 0.50
0.00 0.01 0.02 0.04 0.10 0.40 0.69 0.82 1.10 1.07 0.60 0.50 0.53 0.52 0.40 0.55 0.56 0.58 0.65 0.68 0.42 0.31 0.42 0.42 0.61 0.64 0.48 0.31 0.48 0.66 0.67 0.56
0.01 0.03 0.06 0.12 0.24 0.52 0.61 0.48 0.33 0.16 0.11 0.21 0.36 0.47 0.48 0.46 0.54 0.71 0.63 0.83 0.67 0.38 0.41 0.36 0.44 0.50 0.53 0.39 0.34 0.49 0.55 0.52
0.02 0.06 0.13 0.17 0.15 0.15 0.09 0.06 0.05 0.09 0.12 0.31 0.53 0.86 0.80 0.67 0.54 0.57 0.73 0.87 0.86 0.66 0.55 0.40 0.26 0.24 0.31 0.43 0.41 0.31 0.28 0.36
0.03 0.02 0.01 0.00 0.01 0.09 0.07 0.07 0.08 0.12 0.14 0.24 0.41 0.41 0.31 0.23 0.23 0.28 0.41 0.75 1.05 0.72 0.74 0.69 0.58 0.38 0.28 0.38 0.50 0.43 0.41 0.41
0.00 0.00 0.00 0.01 0.02 0.07 0.09 0.11 0.11 0.09 0.12 0.19 0.48 0.55 0.51 0.49 0.60 0.76 0.89 1.05 1.33 1.21 0.76 0.88 0.89 0.58 0.38 0.50 0.65 0.71 0.79 0.98
0.01 0.02 0.01 0.01 0.04 0.06 0.05 0.13 0.10 0.16 0.21 0.25 0.36 0.48 0.53 0.53 0.54 0.63 0.80 1.03 1.36 1.50 1.59 1.34 1.34 1.17 0.82 0.68 0.71 0.72 0.83 0.92
0.06 0.04 0.02 0.01 0.02 0.06 0.14 0.18 0.19 0.21 0.37 0.46 0.47 0.53 0.67 0.43 0.32 0.40 0.49 0.70 0.69 0.79 0.87 0.94 0.96 1.07 1.02 0.83 0.73 0.71 0.73 0.77
0.12 0.10 0.08 0.10 0.10 0.06 0.12 0.15 0.27 0.28 0.41 0.56 0.70 0.64 0.75 0.63 0.47 0.57 0.47 0.45 0.50 0.69 0.82 0.66 0.76 1.02 1.06 0.95 0.85 0.78 0.85 0.93
0.30 0.26 0.23 0.25 0.23 0.18 0.21 0.24 0.33 0.39 0.41 0.54 0.84 1.03 0.94 0.86 0.81 1.21 1.21 0.78 0.63 0.75 1.16 0.91 0.87 1.12 1.24 1.23 1.19 1.07 1.09 1.02
0.42 0.52 0.50 0.36 0.39 0.33 0.29 0.30 0.33 0.36 0.42 0.54 0.74 0.98 1.15 1.03 1.06 1.22 1.54 1.56 1.24 1.19 1.29 1.09 0.98 0.89 0.88 0.95 0.97 0.83 0.76 0.69
0.61 0.96 0.95 0.68 0.61 0.52 0.45 0.44 0.45 0.47 0.53 0.51 0.63 0.98 0.95 1.46 1.88 1.86 2.00 2.27 2.18 1.84 1.51 1.30 1.19 1.54 1.63 1.21 0.84 0.75 0.77 0.74
0.60 0.56 0.78 1.14 1.06 0.70 0.53 0.48 0.67 1.12 1.36 1.42 1.22 1.53 1.74 1.81 2.17 2.11 1.68 2.40 2.47 2.28 2.27 1.68 0.98 0.90 1.01 1.04 0.83 0.81 0.69 0.68
1.12 1.01 0.79 0.62 0.94 1.05 0.78 0.81 1.45 1.93 1.88 1.92 1.56 1.85 2.07 2.42 2.24 2.04 1.97 1.76 2.18 2.18 2.19 1.75 0.82 0.59 0.51 0.47 0.53 0.50 0.58 0.58
1.12 1.15 1.30 1.26 0.83 0.99 1.02 1.01 1.59 1.82 1.25 1.15 1.35 1.43 1.18 1.27 1.23 1.33 1.48 1.57 1.45 1.26 1.33 0.99 0.59 0.38 0.33 0.35 0.33 0.32 0.34 0.39
0.93 1.44 1.08 0.94 1.06 1.02 0.93 1.03 1.05 1.34 1.22 0.99 0.91 0.93 0.87 0.61 0.59 0.70 1.05 1.07 1.14 1.34 1.35 1.05 0.55 0.31 0.31 0.30 0.25 0.24 0.24 0.24
0.55 0.85 1.32 0.74 0.59 0.69 0.73 0.92 1.09 0.96 0.95 0.86 0.78 0.67 0.61 0.59 0.61 0.52 0.61 0.79 0.80 0.74 0.83 1.00 0.94 0.48 0.49 0.33 0.22 0.18 0.24 0.25
0.40 0.39 0.99 0.99 0.74 0.70 0.62 0.82 0.96 0.84 0.84 0.80 0.60 0.50 0.47 0.39 0.31 0.32 0.36 0.50 0.64 0.72 0.64 0.50 0.44 0.43 0.54 0.31 0.27 0.15 0.17 0.21
0.34 0.35 0.61 0.89 0.63 0.54 0.54 0.63 0.85 0.78 0.68 0.67 0.63 0.45 0.36 0.38 0.30 0.32 0.37 0.46 0.46 0.37 0.31 0.27 0.25 0.27 0.39 0.26 0.25 0.16 0.18 0.23

GFSFLT1_prec_precacc_144.txt.gz
Total_Precipitation_Accumulation
0.00 0.00 0.02 0.03 0.03 0.26 0.64 0.84 1.09 1.18 1.10 0.96 0.77 0.73 0.66 0.67 0.60 0.64 0.72 0.72 0.61 0.64 0.48 0.56 0.81 0.87 0.48 0.44 0.55 0.61 0.56 0.50
0.00 0.01 0.02 0.04 0.10 0.40 0.69 0.82 1.10 1.07 0.60 0.50 0.53 0.52 0.40 0.55 0.57 0.64 0.81 1.01 0.94 0.72 0.57 0.44 0.61 0.64 0.48 0.31 0.48 0.66 0.67 0.56
0.01 0.03 0.06 0.12 0.24 0.52 0.61 0.48 0.33 0.16 0.11 0.21 0.36 0.47 0.48 0.46 0.54 0.71 0.67 0.99 0.99 0.79 0.68 0.43 0.45 0.50 0.53 0.39 0.34 0.49 0.55 0.52
0.02 0.06 0.13 0.17 0.15 0.15 0.09 0.06 0.05 0.09 0.12 0.31 0.53 0.86 0.80 0.67 0.54 0.57 0.73 0.91 1.08 0.97 0.83 0.60 0.34 0.27 0.31 0.43 0.41 0.31 0.28 0.36
0.03 0.02 0.01 0.00 0.01 0.09 0.07 0.07 0.08 0.12 0.14 0.24 0.41 0.41 0.31 0.23 0.23 0.28 0.41 0.75 1.13 0.93 1.15 1.13 0.91 0.47 0.29 0.38 0.50 0.43 0.41 0.41
0.00 0.00 0.00 0.01 0.02 0.07 0.09 0.11 0.11 0.09 0.12 0.19 0.48 0.55 0.52 0.50 0.60 0.76 0.89 1.05 1.37 1.33 1.13 1.54 1.58 0.95 0.44 0.51 0.65 0.71 0.79 0.98
0.01 0.02 0.01 0.01 0.04 0.06 0.05 0.13 0.10 0.16 0.21 0.25 0.36 0.49 0.54 0.54 0.55 0.63 0.80 1.03 1.37 1.55 1.75 1.78 2.21 2.00 1.15 0.74 0.74 0.74 0.83 0.92
0.06 0.04 0.02 0.01 0.02 0.06 0.14 0.18 0.19 0.21 0.37 0.46 0.47 0.54 0.68 0.44 0.32 0.40 0.49 0.70 0.69 0.81 0.98 1.20 1.43 1.81 1.41 0.97 0.81 0.75 0.76 0.77
0.12 0.10 0.08 0.10 0.10 0.06 0.12 0.15 0.27 0.28 0.41 0.56 0.70 0.64 0.76 0.63 0.47 0.57 0.47 0.46 0.50 0.70 0.91 1.12 1.26 1.69 1.83 1.26 0.97 0.83 0.90 0.93
0.30 0.26 0.23 0.25 0.23 0.18 0.22 0.25 0.34 0.39 0.42 0.54 0.84 1.03 0.94 0.86 0.81 1.21 1.21 0.78 0.63 0.75 1.22 1.61 1.81 2.21 2.15 2.26 1.59 1.18 1.15 1.04
0.42 0.52 0.51 0.36 0.39 0.33 0.30 0.31 0.34 0.37 0.43 0.54 0.74 0.98 1.16 1.04 1.06 1.22 1.54 1.57 1.24 1.19 1.39 1.63 2.03 1.92 2.09 1.98 1.56 1.03 0.85 0.78
0.61 0.96 0.95 0.68 0.61 0.52 0.46 0.45 0.47 0.49 0.55 0.53 0.64 1.00 0.98 1.50 1.92 1.88 2.01 2.28 2.18 1.84 1.52 1.66 1.73 1.94 2.12 1.75 1.36 0.93 0.89 0.86
0.60 0.56 0.78 1.14 1.06 0.71 0.54 0.49 0.69 1.15 1.41 1.46 1.28 1.65 1.89 1.98 2.32 2.21 1.73 2.43 2.48 2.29 2.28 1.91 2.15 1.88 1.62 1.55 1.37 1.02 0.81 0.79
1.12 1.01 0.79 0.62 0.94 1.05 0.78 0.81 1.46 1.95 1.94 2.01 1.69 2.01 2.24 2.59 2.45 2.23 2.06 1.90 2.25 2.20 2.30 2.22 1.65 1.89 1.40 1.12 1.08 0.88 0.78 0.78
1.12 1.15 1.30 1.26 0.83 0.99 1.02 1.01 1.60 1.84 1.31 1.27 1.55 1.68 1.45 1.49 1.42 1.56 1.63 1.64 1.49 1.28 1.42 1.51 1.35 1.09 1.31 1.17 1.00 0.71 0.46 0.53
0.93 1.44 1.08 0.94 1.06 1.02 0.93 1.03 1.05 1.34 1.23 1.04 1.00 1.07 1.21 0.90 0.78 0.91 1.18 1.13 1.15 1.36 1.41 1.37 1.40 1.10 0.85 0.98 1.03 0.65 0.40 0.31
0.55 0.85 1.32 0.74 0.59 0.69 0.73 0.92 1.09 0.96 0.95 0.88 0.81 0.72 0.75 0.76 0.78 0.63 0.67 0.82 0.85 0.83 0.94 1.25 1.43 1.49 1.26 0.86 0.71 0.65 0.56 0.33
0.40 0.40 0.99 0.99 0.74 0.70 0.62 0.82 0.96 0.84 0.84 0.80 0.61 0.50 0.47 0.39 0.32 0.34 0.37 0.53 0.70 0.84 0.83 0.73 0.76 0.99 1.38 1.08 0.86 0.60 0.52 0.37
0.34 0.35 0.61 0.89 0.64 0.54 0.54 0.63 0.85 0.78 0.69 0.68 0.63 0.46 0.36 0.38 0.30 0.32 0.38 0.46 0.47 0.39 0.38 0.38 0.40 0.50 0.71 0.74 0.82 0.64 0.54 0.40